Year,Month,Day,Hour,Minute,Value (Times are PST for temperature in C)
2021,04,19,00,00,12.40
2021,04,19,00,01,12.40
2021,04,19,00,02,12.40
2021,04,19,00,03,12.30
2021,04,19,00,04,12.30
2021,04,19,00,05,12.30
2021,04,19,00,06,12.30
2021,04,19,00,07,12.20
2021,04,19,00,08,12.20
2021,04,19,00,09,12.20
2021,04,19,00,10,12.20
2021,04,19,00,11,12.20
2021,04,19,00,12,12.20
2021,04,19,00,13,12.10
2021,04,19,00,14,12.10
2021,04,19,00,15,12.10
2021,04,19,00,16,12.10
2021,04,19,00,17,12.00
2021,04,19,00,18,12.00
2021,04,19,00,19,12.00
2021,04,19,00,20,11.90
2021,04,19,00,21,11.90
2021,04,19,00,22,11.90
2021,04,19,00,23,11.90
2021,04,19,00,24,11.80
2021,04,19,00,25,11.80
2021,04,19,00,26,11.80
2021,04,19,00,27,11.70
2021,04,19,00,28,11.70
2021,04,19,00,29,11.70
2021,04,19,00,30,11.70
2021,04,19,00,31,11.70
2021,04,19,00,32,11.70
2021,04,19,00,33,11.70
2021,04,19,00,34,11.70
2021,04,19,00,35,11.60
2021,04,19,00,36,11.50
2021,04,19,00,37,11.50
2021,04,19,00,38,11.60
2021,04,19,00,39,11.60
2021,04,19,00,40,11.60
2021,04,19,00,41,11.60
2021,04,19,00,42,11.60
2021,04,19,00,43,11.60
2021,04,19,00,44,11.60
2021,04,19,00,45,11.60
2021,04,19,00,46,11.50
2021,04,19,00,47,11.50
2021,04,19,00,48,11.40
2021,04,19,00,49,11.40
2021,04,19,00,50,11.40
2021,04,19,00,51,11.40
2021,04,19,00,52,11.40
2021,04,19,00,53,11.30
2021,04,19,00,54,11.30
2021,04,19,00,55,11.30
2021,04,19,00,56,11.30
2021,04,19,00,57,11.20
2021,04,19,00,58,11.20
2021,04,19,00,59,11.20
2021,04,19,01,00,11.20
2021,04,19,01,01,11.20
2021,04,19,01,02,11.20
2021,04,19,01,03,11.10
2021,04,19,01,04,11.10
2021,04,19,01,05,11.10
2021,04,19,01,06,11.10
2021,04,19,01,07,11.10
2021,04,19,01,08,11.10
2021,04,19,01,09,11.10
2021,04,19,01,10,11.10
2021,04,19,01,11,11.10
2021,04,19,01,12,11.10
2021,04,19,01,13,11.10
2021,04,19,01,14,11.10
2021,04,19,01,15,11.10
2021,04,19,01,16,11.20
2021,04,19,01,17,11.20
2021,04,19,01,18,11.20
2021,04,19,01,19,11.30
2021,04,19,01,20,11.40
2021,04,19,01,21,11.50
2021,04,19,01,22,11.70
2021,04,19,01,23,11.80
2021,04,19,01,24,11.90
2021,04,19,01,25,12.00
2021,04,19,01,26,12.10
2021,04,19,01,27,12.20
2021,04,19,01,28,12.30
2021,04,19,01,29,12.40
2021,04,19,01,30,12.50
2021,04,19,01,31,12.60
2021,04,19,01,32,12.60
2021,04,19,01,33,12.60
2021,04,19,01,34,12.60
2021,04,19,01,35,12.70
2021,04,19,01,36,12.60
2021,04,19,01,37,12.60
2021,04,19,01,38,12.60
2021,04,19,01,39,12.60
2021,04,19,01,40,12.60
2021,04,19,01,41,12.60
2021,04,19,01,42,12.50
2021,04,19,01,43,12.50
2021,04,19,01,44,12.40
2021,04,19,01,45,12.30
2021,04,19,01,46,12.30
2021,04,19,01,47,12.20
2021,04,19,01,48,12.20
2021,04,19,01,49,12.10
2021,04,19,01,50,12.10
2021,04,19,01,51,12.00
2021,04,19,01,52,11.90
2021,04,19,01,53,11.90
2021,04,19,01,54,11.80
2021,04,19,01,55,11.80
2021,04,19,01,56,11.70
2021,04,19,01,57,11.70
2021,04,19,01,58,11.70
2021,04,19,01,59,11.60
2021,04,19,02,00,11.60
2021,04,19,02,01,11.50
2021,04,19,02,02,11.50
2021,04,19,02,03,11.50
2021,04,19,02,04,11.40
2021,04,19,02,05,11.40
2021,04,19,02,06,11.40
2021,04,19,02,07,11.40
2021,04,19,02,08,11.30
2021,04,19,02,09,11.30
2021,04,19,02,10,11.30
2021,04,19,02,11,11.30
2021,04,19,02,12,11.30
2021,04,19,02,13,11.30
2021,04,19,02,14,11.30
2021,04,19,02,15,11.20
2021,04,19,02,16,11.20
2021,04,19,02,17,11.20
2021,04,19,02,18,11.20
2021,04,19,02,19,11.20
2021,04,19,02,20,11.20
2021,04,19,02,21,11.30
2021,04,19,02,22,11.30
2021,04,19,02,23,11.30
2021,04,19,02,24,11.40
2021,04,19,02,25,11.50
2021,04,19,02,26,11.60
2021,04,19,02,27,11.70
2021,04,19,02,28,11.90
2021,04,19,02,29,12.10
2021,04,19,02,30,12.30
2021,04,19,02,31,12.50
2021,04,19,02,32,12.70
2021,04,19,02,33,12.80
2021,04,19,02,34,12.90
2021,04,19,02,35,13.10
2021,04,19,02,36,13.20
2021,04,19,02,37,13.30
2021,04,19,02,38,13.40
2021,04,19,02,39,13.50
2021,04,19,02,40,13.60
2021,04,19,02,41,13.70
2021,04,19,02,42,13.80
2021,04,19,02,43,13.90
2021,04,19,02,44,14.00
2021,04,19,02,45,14.10
2021,04,19,02,46,14.10
2021,04,19,02,47,14.20
2021,04,19,02,48,14.20
2021,04,19,02,49,14.30
2021,04,19,02,50,14.30
2021,04,19,02,51,14.30
2021,04,19,02,52,14.30
2021,04,19,02,53,14.40
2021,04,19,02,54,14.40
2021,04,19,02,55,14.40
2021,04,19,02,56,14.40
2021,04,19,02,57,14.40
2021,04,19,02,58,14.40
2021,04,19,02,59,14.40
2021,04,19,03,00,14.40
2021,04,19,03,01,14.40
2021,04,19,03,02,14.40
2021,04,19,03,03,14.40
2021,04,19,03,04,14.40
2021,04,19,03,05,14.40
2021,04,19,03,06,14.40
2021,04,19,03,07,14.30
2021,04,19,03,08,14.30
2021,04,19,03,09,14.30
2021,04,19,03,10,14.30
2021,04,19,03,11,14.30
2021,04,19,03,12,14.30
2021,04,19,03,13,14.20
2021,04,19,03,14,14.20
2021,04,19,03,15,14.20
2021,04,19,03,16,14.20
2021,04,19,03,17,14.20
2021,04,19,03,18,14.20
2021,04,19,03,19,14.20
2021,04,19,03,20,14.10
2021,04,19,03,21,14.10
2021,04,19,03,22,14.10
2021,04,19,03,23,14.10
2021,04,19,03,24,14.00
2021,04,19,03,25,14.00
2021,04,19,03,26,13.90
2021,04,19,03,27,13.90
2021,04,19,03,28,13.80
2021,04,19,03,29,13.80
2021,04,19,03,30,13.80
2021,04,19,03,31,13.70
2021,04,19,03,32,13.70
2021,04,19,03,33,13.60
2021,04,19,03,34,13.60
2021,04,19,03,35,13.60
2021,04,19,03,36,13.50
2021,04,19,03,37,13.50
2021,04,19,03,38,13.40
2021,04,19,03,39,13.40
2021,04,19,03,40,13.40
2021,04,19,03,41,13.30
2021,04,19,03,42,13.30
2021,04,19,03,43,13.30
2021,04,19,03,44,13.30
2021,04,19,03,45,13.30
2021,04,19,03,46,13.30
2021,04,19,03,47,13.30
2021,04,19,03,48,13.30
2021,04,19,03,49,13.30
2021,04,19,03,50,13.20
2021,04,19,03,51,13.20
2021,04,19,03,52,13.20
2021,04,19,03,53,13.10
2021,04,19,03,54,13.10
2021,04,19,03,55,13.10
2021,04,19,03,56,13.10
2021,04,19,03,57,13.10
2021,04,19,03,58,13.00
2021,04,19,03,59,13.00
2021,04,19,04,00,13.00
2021,04,19,04,01,12.90
2021,04,19,04,02,12.70
2021,04,19,04,03,12.50
2021,04,19,04,04,12.40
2021,04,19,04,05,12.20
2021,04,19,04,06,12.10
2021,04,19,04,07,12.00
2021,04,19,04,08,12.00
2021,04,19,04,09,11.90
2021,04,19,04,10,11.80
2021,04,19,04,11,11.80
2021,04,19,04,12,11.70
2021,04,19,04,13,11.70
2021,04,19,04,14,11.60
2021,04,19,04,15,11.50
2021,04,19,04,16,11.50
2021,04,19,04,17,11.40
2021,04,19,04,18,11.30
2021,04,19,04,19,11.30
2021,04,19,04,20,11.20
2021,04,19,04,21,11.20
2021,04,19,04,22,11.20
2021,04,19,04,23,11.20
2021,04,19,04,24,11.10
2021,04,19,04,25,11.10
2021,04,19,04,26,11.10
2021,04,19,04,27,11.10
2021,04,19,04,28,11.10
2021,04,19,04,29,11.10
2021,04,19,04,30,11.10
2021,04,19,04,31,11.10
2021,04,19,04,32,11.10
2021,04,19,04,33,11.20
2021,04,19,04,34,11.30
2021,04,19,04,35,11.30
2021,04,19,04,36,11.30
2021,04,19,04,37,11.30
2021,04,19,04,38,11.30
2021,04,19,04,39,11.30
2021,04,19,04,40,11.30
2021,04,19,04,41,11.30
2021,04,19,04,42,11.30
2021,04,19,04,43,11.30
2021,04,19,04,44,11.30
2021,04,19,04,45,11.40
2021,04,19,04,46,11.40
2021,04,19,04,47,11.40
2021,04,19,04,48,11.40
2021,04,19,04,49,11.30
2021,04,19,04,50,11.20
2021,04,19,04,51,11.20
2021,04,19,04,52,11.10
2021,04,19,04,53,11.00
2021,04,19,04,54,11.00
2021,04,19,04,55,10.90
2021,04,19,04,56,11.00
2021,04,19,04,57,11.00
2021,04,19,04,58,11.00
2021,04,19,04,59,11.10
2021,04,19,05,00,11.10
2021,04,19,05,01,11.10
2021,04,19,05,02,11.10
2021,04,19,05,03,11.10
2021,04,19,05,04,11.20
2021,04,19,05,05,11.20
2021,04,19,05,06,11.20
2021,04,19,05,07,11.20
2021,04,19,05,08,11.20
2021,04,19,05,09,11.20
2021,04,19,05,10,11.20
2021,04,19,05,11,11.20
2021,04,19,05,12,11.20
2021,04,19,05,13,11.20
2021,04,19,05,14,11.20
2021,04,19,05,15,11.20
2021,04,19,05,16,11.20
2021,04,19,05,17,11.20
2021,04,19,05,18,11.20
2021,04,19,05,19,11.20
2021,04,19,05,20,11.20
2021,04,19,05,21,11.20
2021,04,19,05,22,11.20
2021,04,19,05,23,11.20
2021,04,19,05,24,11.20
2021,04,19,05,25,11.20
2021,04,19,05,26,11.20
2021,04,19,05,27,11.20
2021,04,19,05,28,11.30
2021,04,19,05,29,11.30
2021,04,19,05,30,11.30
2021,04,19,05,31,11.30
2021,04,19,05,32,11.30
2021,04,19,05,33,11.30
2021,04,19,05,34,11.30
2021,04,19,05,35,11.30
2021,04,19,05,36,11.30
2021,04,19,05,37,11.30
2021,04,19,05,38,11.20
2021,04,19,05,39,11.20
2021,04,19,05,40,11.20
2021,04,19,05,41,11.20
2021,04,19,05,42,11.20
2021,04,19,05,43,11.20
2021,04,19,05,44,11.10
2021,04,19,05,45,11.10
2021,04,19,05,46,11.10
2021,04,19,05,47,11.10
2021,04,19,05,48,11.10
2021,04,19,05,49,11.10
2021,04,19,05,50,11.10
2021,04,19,05,51,11.10
2021,04,19,05,52,11.10
2021,04,19,05,53,11.10
2021,04,19,05,54,11.10
2021,04,19,05,55,11.10
2021,04,19,05,56,11.10
2021,04,19,05,57,11.00
2021,04,19,05,58,11.00
2021,04,19,05,59,11.00
2021,04,19,06,00,11.00
2021,04,19,06,01,10.90
2021,04,19,06,02,10.90
2021,04,19,06,03,10.90
2021,04,19,06,04,10.90
2021,04,19,06,05,10.90
2021,04,19,06,06,10.90
2021,04,19,06,07,10.90
2021,04,19,06,08,10.90
2021,04,19,06,09,10.90
2021,04,19,06,10,10.90
2021,04,19,06,11,10.90
2021,04,19,06,12,10.90
2021,04,19,06,13,10.90
2021,04,19,06,14,10.90
2021,04,19,06,15,10.90
2021,04,19,06,16,10.80
2021,04,19,06,17,10.80
2021,04,19,06,18,10.80
2021,04,19,06,19,10.80
2021,04,19,06,20,10.80
2021,04,19,06,21,10.80
2021,04,19,06,22,10.80
2021,04,19,06,23,10.80
2021,04,19,06,24,10.70
2021,04,19,06,25,10.70
2021,04,19,06,26,10.70
2021,04,19,06,27,10.70
2021,04,19,06,28,10.70
2021,04,19,06,29,10.70
2021,04,19,06,30,10.70
2021,04,19,06,31,10.70
2021,04,19,06,32,10.70
2021,04,19,06,33,10.80
2021,04,19,06,34,10.80
2021,04,19,06,35,10.80
2021,04,19,06,36,10.80
2021,04,19,06,37,10.80
2021,04,19,06,38,10.80
2021,04,19,06,39,10.80
2021,04,19,06,40,10.80
2021,04,19,06,41,10.80
2021,04,19,06,42,10.80
2021,04,19,06,43,10.80
2021,04,19,06,44,10.80
2021,04,19,06,45,10.80
2021,04,19,06,46,10.90
2021,04,19,06,47,10.90
2021,04,19,06,48,10.90
2021,04,19,06,49,11.00
2021,04,19,06,50,11.00
2021,04,19,06,51,11.00
2021,04,19,06,52,11.10
2021,04,19,06,53,11.10
2021,04,19,06,54,11.20
2021,04,19,06,55,11.20
2021,04,19,06,56,11.20
2021,04,19,06,57,11.20
2021,04,19,06,58,11.30
2021,04,19,06,59,11.30
2021,04,19,07,00,11.30
2021,04,19,07,01,11.30
2021,04,19,07,02,11.30
2021,04,19,07,03,11.40
2021,04,19,07,04,11.40
2021,04,19,07,05,11.40
2021,04,19,07,06,11.40
2021,04,19,07,07,11.40
2021,04,19,07,08,11.40
2021,04,19,07,09,11.50
2021,04,19,07,10,11.50
2021,04,19,07,11,11.50
2021,04,19,07,12,11.50
2021,04,19,07,13,11.50
2021,04,19,07,14,11.40
2021,04,19,07,15,11.40
2021,04,19,07,16,11.40
2021,04,19,07,17,11.40
2021,04,19,07,18,11.30
2021,04,19,07,19,11.40
2021,04,19,07,20,11.40
2021,04,19,07,21,11.40
2021,04,19,07,22,11.50
2021,04,19,07,23,11.50
2021,04,19,07,24,11.50
2021,04,19,07,25,11.60
2021,04,19,07,26,11.60
2021,04,19,07,27,11.70
2021,04,19,07,28,11.70
2021,04,19,07,29,11.70
2021,04,19,07,30,11.80
2021,04,19,07,31,11.80
2021,04,19,07,32,11.80
2021,04,19,07,33,11.90
2021,04,19,07,34,11.90
2021,04,19,07,35,11.90
2021,04,19,07,36,12.00
2021,04,19,07,37,12.00
2021,04,19,07,38,12.00
2021,04,19,07,39,12.10
2021,04,19,07,40,12.10
2021,04,19,07,41,12.20
2021,04,19,07,42,12.20
2021,04,19,07,43,12.20
2021,04,19,07,44,12.30
2021,04,19,07,45,12.30
2021,04,19,07,46,12.40
2021,04,19,07,47,12.40
2021,04,19,07,48,12.50
2021,04,19,07,49,12.60
2021,04,19,07,50,12.70
2021,04,19,07,51,12.70
2021,04,19,07,52,12.80
2021,04,19,07,53,12.80
2021,04,19,07,54,12.90
2021,04,19,07,55,13.00
2021,04,19,07,56,13.10
2021,04,19,07,57,13.20
2021,04,19,07,58,13.20
2021,04,19,07,59,13.30
2021,04,19,08,00,13.30
2021,04,19,08,01,13.40
2021,04,19,08,02,13.50
2021,04,19,08,03,13.50
2021,04,19,08,04,13.60
2021,04,19,08,05,13.70
2021,04,19,08,06,13.70
2021,04,19,08,07,13.70
2021,04,19,08,08,13.60
2021,04,19,08,09,13.50
2021,04,19,08,10,13.40
2021,04,19,08,11,13.20
2021,04,19,08,12,13.10
2021,04,19,08,13,13.00
2021,04,19,08,14,12.90
2021,04,19,08,15,12.90
2021,04,19,08,16,12.90
2021,04,19,08,17,12.80
2021,04,19,08,18,12.80
2021,04,19,08,19,12.80
2021,04,19,08,20,12.80
2021,04,19,08,21,12.90
2021,04,19,08,22,12.90
2021,04,19,08,23,13.00
2021,04,19,08,24,13.10
2021,04,19,08,25,13.30
2021,04,19,08,26,13.40
2021,04,19,08,27,13.50
2021,04,19,08,28,13.70
2021,04,19,08,29,13.80
2021,04,19,08,30,13.90
2021,04,19,08,31,14.00
2021,04,19,08,32,14.00
2021,04,19,08,33,14.00
2021,04,19,08,34,14.00
2021,04,19,08,35,13.90
2021,04,19,08,36,13.90
2021,04,19,08,37,13.80
2021,04,19,08,38,13.80
2021,04,19,08,39,13.70
2021,04,19,08,40,13.70
2021,04,19,08,41,13.70
2021,04,19,08,42,13.70
2021,04,19,08,43,13.70
2021,04,19,08,44,13.70
2021,04,19,08,45,13.70
2021,04,19,08,46,13.70
2021,04,19,08,47,13.80
2021,04,19,08,48,13.90
2021,04,19,08,49,14.00
2021,04,19,08,50,14.20
2021,04,19,08,51,14.30
2021,04,19,08,52,14.50
2021,04,19,08,53,14.60
2021,04,19,08,54,14.70
2021,04,19,08,55,14.80
2021,04,19,08,56,14.80
2021,04,19,08,57,14.90
2021,04,19,08,58,15.00
2021,04,19,08,59,15.10
2021,04,19,09,00,15.10
2021,04,19,09,01,15.20
2021,04,19,09,02,15.10
2021,04,19,09,03,15.10
2021,04,19,09,04,15.10
2021,04,19,09,05,15.00
2021,04,19,09,06,15.00
2021,04,19,09,07,15.10
2021,04,19,09,08,15.10
2021,04,19,09,09,15.20
2021,04,19,09,10,15.30
2021,04,19,09,11,15.40
2021,04,19,09,12,15.50
2021,04,19,09,13,15.50
2021,04,19,09,14,15.60
2021,04,19,09,15,15.60
2021,04,19,09,16,15.70
2021,04,19,09,17,15.70
2021,04,19,09,18,15.70
2021,04,19,09,19,15.70
2021,04,19,09,20,15.60
2021,04,19,09,21,15.60
2021,04,19,09,22,15.50
2021,04,19,09,23,15.40
2021,04,19,09,24,15.30
2021,04,19,09,25,15.20
2021,04,19,09,26,15.10
2021,04,19,09,27,14.90
2021,04,19,09,28,14.80
2021,04,19,09,29,14.70
2021,04,19,09,30,14.60
2021,04,19,09,31,14.60
2021,04,19,09,32,14.50
2021,04,19,09,33,14.40
2021,04,19,09,34,14.40
2021,04,19,09,35,14.30
2021,04,19,09,36,14.30
2021,04,19,09,37,14.30
2021,04,19,09,38,14.20
2021,04,19,09,39,14.20
2021,04,19,09,40,14.20
2021,04,19,09,41,14.20
2021,04,19,09,42,14.20
2021,04,19,09,43,14.20
2021,04,19,09,44,14.20
2021,04,19,09,45,14.20
2021,04,19,09,46,14.20
2021,04,19,09,47,14.20
2021,04,19,09,48,14.20
2021,04,19,09,49,14.20
2021,04,19,09,50,14.10
2021,04,19,09,51,14.10
2021,04,19,09,52,14.00
2021,04,19,09,53,14.00
2021,04,19,09,54,13.90
2021,04,19,09,55,13.90
2021,04,19,09,56,13.90
2021,04,19,09,57,13.90
2021,04,19,09,58,13.90
2021,04,19,09,59,13.80
2021,04,19,10,00,13.90
2021,04,19,10,01,13.80
2021,04,19,10,02,13.80
2021,04,19,10,03,13.80
2021,04,19,10,04,13.80
2021,04,19,10,05,13.90
2021,04,19,10,06,13.90
2021,04,19,10,07,13.90
2021,04,19,10,08,13.80
2021,04,19,10,09,13.80
2021,04,19,10,10,13.80
2021,04,19,10,11,13.80
2021,04,19,10,12,13.80
2021,04,19,10,13,13.80
2021,04,19,10,14,13.80
2021,04,19,10,15,13.80
2021,04,19,10,16,13.80
2021,04,19,10,17,13.80
2021,04,19,10,18,13.80
2021,04,19,10,19,13.80
2021,04,19,10,20,13.80
2021,04,19,10,21,13.90
2021,04,19,10,22,13.90
2021,04,19,10,23,13.90
2021,04,19,10,24,14.00
2021,04,19,10,25,14.00
2021,04,19,10,26,14.10
2021,04,19,10,27,14.10
2021,04,19,10,28,14.10
2021,04,19,10,29,14.10
2021,04,19,10,30,14.10
2021,04,19,10,31,14.10
2021,04,19,10,32,14.10
2021,04,19,10,33,14.10
2021,04,19,10,34,14.10
2021,04,19,10,35,14.10
2021,04,19,10,36,14.20
2021,04,19,10,37,14.20
2021,04,19,10,38,14.20
2021,04,19,10,39,14.20
2021,04,19,10,40,14.20
2021,04,19,10,41,14.20
2021,04,19,10,42,14.20
2021,04,19,10,43,14.20
2021,04,19,10,44,14.20
2021,04,19,10,45,14.20
2021,04,19,10,46,14.20
2021,04,19,10,47,14.20
2021,04,19,10,48,14.20
2021,04,19,10,49,14.20
2021,04,19,10,50,14.20
2021,04,19,10,51,14.20
2021,04,19,10,52,14.20
2021,04,19,10,53,14.20
2021,04,19,10,54,14.20
2021,04,19,10,55,14.20
2021,04,19,10,56,14.20
2021,04,19,10,57,14.20
2021,04,19,10,58,14.20
2021,04,19,10,59,14.20
2021,04,19,11,00,14.20
2021,04,19,11,01,14.20
2021,04,19,11,02,14.20
2021,04,19,11,03,14.20
2021,04,19,11,04,14.20
2021,04,19,11,05,14.20
2021,04,19,11,06,14.30
2021,04,19,11,07,14.30
2021,04,19,11,08,14.30
2021,04,19,11,09,14.30
2021,04,19,11,10,14.30
2021,04,19,11,11,14.30
2021,04,19,11,12,14.30
2021,04,19,11,13,14.30
2021,04,19,11,14,14.30
2021,04,19,11,15,14.30
2021,04,19,11,16,14.40
2021,04,19,11,17,14.40
2021,04,19,11,18,14.40
2021,04,19,11,19,14.40
2021,04,19,11,20,14.30
2021,04,19,11,21,14.30
2021,04,19,11,22,14.20
2021,04,19,11,23,14.20
2021,04,19,11,24,14.20
2021,04,19,11,25,14.20
2021,04,19,11,26,14.30
2021,04,19,11,27,14.30
2021,04,19,11,28,14.30
2021,04,19,11,29,14.30
2021,04,19,11,30,14.40
2021,04,19,11,31,14.40
2021,04,19,11,32,14.40
2021,04,19,11,33,14.30
2021,04,19,11,34,14.30
2021,04,19,11,35,14.30
2021,04,19,11,36,14.30
2021,04,19,11,37,14.30
2021,04,19,11,38,14.30
2021,04,19,11,39,14.40
2021,04,19,11,40,14.40
2021,04,19,11,41,14.50
2021,04,19,11,42,14.50
2021,04,19,11,43,14.50
2021,04,19,11,44,14.50
2021,04,19,11,45,14.60
2021,04,19,11,46,14.60
2021,04,19,11,47,14.60
2021,04,19,11,48,14.60
2021,04,19,11,49,14.60
2021,04,19,11,50,14.60
2021,04,19,11,51,14.60
2021,04,19,11,52,14.50
2021,04,19,11,53,14.50
2021,04,19,11,54,14.40
2021,04,19,11,55,14.40
2021,04,19,11,56,14.30
2021,04,19,11,57,14.30
2021,04,19,11,58,14.20
2021,04,19,11,59,14.20
2021,04,19,12,00,14.30
2021,04,19,12,01,14.30
2021,04,19,12,02,14.30
2021,04,19,12,03,14.30
2021,04,19,12,04,14.30
2021,04,19,12,05,14.30
2021,04,19,12,06,14.20
2021,04,19,12,07,14.20
2021,04,19,12,08,14.20
2021,04,19,12,09,14.20
2021,04,19,12,10,14.20
2021,04,19,12,11,14.30
2021,04,19,12,12,14.30
2021,04,19,12,13,14.30
2021,04,19,12,14,14.20
2021,04,19,12,15,14.20
2021,04,19,12,16,14.20
2021,04,19,12,17,14.20
2021,04,19,12,18,14.20
2021,04,19,12,19,14.20
2021,04,19,12,20,14.20
2021,04,19,12,21,14.30
2021,04,19,12,22,14.30
2021,04,19,12,23,14.30
2021,04,19,12,24,14.30
2021,04,19,12,25,14.40
2021,04,19,12,26,14.40
2021,04,19,12,27,14.40
2021,04,19,12,28,14.50
2021,04,19,12,29,14.50
2021,04,19,12,30,14.60
2021,04,19,12,31,14.60
2021,04,19,12,32,14.60
2021,04,19,12,33,14.60
2021,04,19,12,34,14.60
2021,04,19,12,35,14.60
2021,04,19,12,36,14.60
2021,04,19,12,37,14.70
2021,04,19,12,38,14.70
2021,04,19,12,39,14.80
2021,04,19,12,40,14.90
2021,04,19,12,41,15.00
2021,04,19,12,42,15.00
2021,04,19,12,43,15.00
2021,04,19,12,44,15.10
2021,04,19,12,45,15.20
2021,04,19,12,46,15.20
2021,04,19,12,47,15.30
2021,04,19,12,48,15.30
2021,04,19,12,49,15.30
2021,04,19,12,50,15.20
2021,04,19,12,51,15.20
2021,04,19,12,52,15.10
2021,04,19,12,53,15.00
2021,04,19,12,54,14.90
2021,04,19,12,55,14.70
2021,04,19,12,56,14.60
2021,04,19,12,57,14.40
2021,04,19,12,58,14.30
2021,04,19,12,59,14.20
2021,04,19,13,00,14.20
2021,04,19,13,01,14.20
2021,04,19,13,02,14.20
2021,04,19,13,03,14.20
2021,04,19,13,04,14.20
2021,04,19,13,05,14.30
2021,04,19,13,06,14.40
2021,04,19,13,07,14.50
2021,04,19,13,08,14.60
2021,04,19,13,09,14.80
2021,04,19,13,10,14.90
2021,04,19,13,11,15.10
2021,04,19,13,12,15.20
2021,04,19,13,13,15.30
2021,04,19,13,14,15.50
2021,04,19,13,15,15.60
2021,04,19,13,16,15.80
2021,04,19,13,17,15.90
2021,04,19,13,18,16.10
2021,04,19,13,19,16.20
2021,04,19,13,20,16.30
2021,04,19,13,21,16.40
2021,04,19,13,22,16.60
2021,04,19,13,23,16.60
2021,04,19,13,24,16.70
2021,04,19,13,25,16.80
2021,04,19,13,26,16.80
2021,04,19,13,27,16.90
2021,04,19,13,28,16.90
2021,04,19,13,29,17.00
2021,04,19,13,30,17.00
2021,04,19,13,31,17.10
2021,04,19,13,32,17.10
2021,04,19,13,33,17.10
2021,04,19,13,34,17.10
2021,04,19,13,35,17.10
2021,04,19,13,36,17.10
2021,04,19,13,37,17.00
2021,04,19,13,38,17.00
2021,04,19,13,39,16.90
2021,04,19,13,40,16.90
2021,04,19,13,41,16.80
2021,04,19,13,42,16.80
2021,04,19,13,43,16.80
2021,04,19,13,44,16.70
2021,04,19,13,45,16.70
2021,04,19,13,46,16.60
2021,04,19,13,47,16.60
2021,04,19,13,48,16.60
2021,04,19,13,49,16.60
2021,04,19,13,50,16.60
2021,04,19,13,51,16.60
2021,04,19,13,52,16.60
2021,04,19,13,53,16.70
2021,04,19,13,54,16.70
2021,04,19,13,55,16.80
2021,04,19,13,56,16.90
2021,04,19,13,57,17.10
2021,04,19,13,58,17.20
2021,04,19,13,59,17.30
2021,04,19,14,00,17.50
2021,04,19,14,01,17.60
2021,04,19,14,02,17.70
2021,04,19,14,03,17.90
2021,04,19,14,04,18.00
2021,04,19,14,05,18.10
2021,04,19,14,06,18.20
2021,04,19,14,07,18.30
2021,04,19,14,08,18.40
2021,04,19,14,09,18.50
2021,04,19,14,10,18.60
2021,04,19,14,11,18.70
2021,04,19,14,12,18.80
2021,04,19,14,13,18.80
2021,04,19,14,14,18.90
2021,04,19,14,15,19.00
2021,04,19,14,16,19.10
2021,04,19,14,17,19.10
2021,04,19,14,18,19.20
2021,04,19,14,19,19.20
2021,04,19,14,20,19.20
2021,04,19,14,21,19.20
2021,04,19,14,22,19.20
2021,04,19,14,23,19.20
2021,04,19,14,24,19.30
2021,04,19,14,25,19.30
2021,04,19,14,26,19.30
2021,04,19,14,27,19.40
2021,04,19,14,28,19.40
2021,04,19,14,29,19.40
2021,04,19,14,30,19.40
2021,04,19,14,31,19.40
2021,04,19,14,32,19.30
2021,04,19,14,33,19.30
2021,04,19,14,34,19.30
2021,04,19,14,35,19.20
2021,04,19,14,36,19.20
2021,04,19,14,37,19.20
2021,04,19,14,38,19.20
2021,04,19,14,39,19.20
2021,04,19,14,40,19.10
2021,04,19,14,41,19.20
2021,04,19,14,42,19.20
2021,04,19,14,43,19.20
2021,04,19,14,44,19.20
2021,04,19,14,45,19.20
2021,04,19,14,46,19.30
2021,04,19,14,47,19.30
2021,04,19,14,48,19.30
2021,04,19,14,49,19.30
2021,04,19,14,50,19.30
2021,04,19,14,51,19.30
2021,04,19,14,52,19.30
2021,04,19,14,53,19.30
2021,04,19,14,54,19.40
2021,04,19,14,55,19.40
2021,04,19,14,56,19.40
2021,04,19,14,57,19.40
2021,04,19,14,58,19.40
2021,04,19,14,59,19.40
2021,04,19,15,00,19.40
2021,04,19,15,01,19.40
2021,04,19,15,02,19.40
2021,04,19,15,03,19.30
2021,04,19,15,04,19.30
2021,04,19,15,05,19.30
2021,04,19,15,06,19.30
2021,04,19,15,07,19.30
2021,04,19,15,08,19.30
2021,04,19,15,09,19.30
2021,04,19,15,10,19.30
2021,04,19,15,11,19.30
2021,04,19,15,12,19.30
2021,04,19,15,13,19.30
2021,04,19,15,14,19.30
2021,04,19,15,15,19.40
2021,04,19,15,16,19.40
2021,04,19,15,17,19.40
2021,04,19,15,18,19.40
2021,04,19,15,19,19.40
2021,04,19,15,20,19.40
2021,04,19,15,21,19.50
2021,04,19,15,22,19.50
2021,04,19,15,23,19.60
2021,04,19,15,24,19.60
2021,04,19,15,25,19.60
2021,04,19,15,26,19.70
2021,04,19,15,27,19.70
2021,04,19,15,28,19.70
2021,04,19,15,29,19.70
2021,04,19,15,30,19.70
2021,04,19,15,31,19.70
2021,04,19,15,32,19.70
2021,04,19,15,33,19.80
2021,04,19,15,34,19.80
2021,04,19,15,35,19.80
2021,04,19,15,36,19.80
2021,04,19,15,37,19.80
2021,04,19,15,38,19.80
2021,04,19,15,39,19.80
2021,04,19,15,40,19.80
2021,04,19,15,41,19.80
2021,04,19,15,42,19.80
2021,04,19,15,43,19.80
2021,04,19,15,44,19.80
2021,04,19,15,45,19.80
2021,04,19,15,46,19.90
2021,04,19,15,47,19.90
2021,04,19,15,48,20.00
2021,04,19,15,49,20.00
2021,04,19,15,50,20.00
2021,04,19,15,51,20.00
2021,04,19,15,52,20.10
2021,04,19,15,53,20.10
2021,04,19,15,54,20.10
2021,04,19,15,55,20.10
2021,04,19,15,56,20.10
2021,04,19,15,57,20.20
2021,04,19,15,58,20.20
2021,04,19,15,59,20.30
2021,04,19,16,00,20.30
2021,04,19,16,01,20.30
2021,04,19,16,02,20.40
2021,04,19,16,03,20.40
2021,04,19,16,04,20.30
2021,04,19,16,05,20.30
2021,04,19,16,06,20.30
2021,04,19,16,07,20.30
2021,04,19,16,08,20.30
2021,04,19,16,09,20.30
2021,04,19,16,10,20.30
2021,04,19,16,11,20.30
2021,04,19,16,12,20.30
2021,04,19,16,13,20.30
2021,04,19,16,14,20.30
2021,04,19,16,15,20.30
2021,04,19,16,16,20.30
2021,04,19,16,17,20.30
2021,04,19,16,18,20.30
2021,04,19,16,19,20.40
2021,04,19,16,20,20.50
2021,04,19,16,21,20.50
2021,04,19,16,22,20.60
2021,04,19,16,23,20.70
2021,04,19,16,24,20.80
2021,04,19,16,25,20.80
2021,04,19,16,26,20.90
2021,04,19,16,27,21.00
2021,04,19,16,28,21.10
2021,04,19,16,29,21.20
2021,04,19,16,30,21.20
2021,04,19,16,31,21.30
2021,04,19,16,32,21.40
2021,04,19,16,33,21.50
2021,04,19,16,34,21.60
2021,04,19,16,35,21.70
2021,04,19,16,36,21.70
2021,04,19,16,37,21.80
2021,04,19,16,38,21.90
2021,04,19,16,39,22.00
2021,04,19,16,40,22.10
2021,04,19,16,41,22.20
2021,04,19,16,42,22.20
2021,04,19,16,43,22.30
2021,04,19,16,44,22.20
2021,04,19,16,45,22.10
2021,04,19,16,46,22.00
2021,04,19,16,47,21.80
2021,04,19,16,48,21.60
2021,04,19,16,49,21.40
2021,04,19,16,50,21.10
2021,04,19,16,51,20.80
2021,04,19,16,52,20.50
2021,04,19,16,53,20.30
2021,04,19,16,54,20.10
2021,04,19,16,55,19.90
2021,04,19,16,56,19.80
2021,04,19,16,57,19.60
2021,04,19,16,58,19.60
2021,04,19,16,59,19.50
2021,04,19,17,00,19.40
2021,04,19,17,01,19.40
2021,04,19,17,02,19.30
2021,04,19,17,03,19.30
2021,04,19,17,04,19.30
2021,04,19,17,05,19.30
2021,04,19,17,06,19.30
2021,04,19,17,07,19.30
2021,04,19,17,08,19.20
2021,04,19,17,09,19.20
2021,04,19,17,10,19.10
2021,04,19,17,11,19.10
2021,04,19,17,12,19.10
2021,04,19,17,13,19.00
2021,04,19,17,14,19.00
2021,04,19,17,15,19.00
2021,04,19,17,16,19.00
2021,04,19,17,17,19.00
2021,04,19,17,18,19.10
2021,04,19,17,19,19.10